This demonstration page uses our WeatherBlox Daily Observations layout. Learn more.

Left ArrowRight Arrow

39.08367, -84.50855

Hourly Observations for November 15, 2018

Temp ( °F °C ) Dew Point ( °F °C ) Humidity (%) Winds ( mph kmh ) Pressure ( in mb ) Visibility ( mi km ) Precip ( " mm )
12:53 am 00:53 Cloudy with Freezing Rain 31 -0.6 29 -1.7 92 92 ENE 14 22 30.27 1025 6 10 0.08 2.03
1:35 am 01:35 Cloudy with Light Wintry Mix 32 0 30 -1.1 92 92 NE 12 19 30.27 1025 5 8 0.06 1.52
1:53 am 01:53 Cloudy with Freezing Rain 32 0 30 -1.1 92 92 NNE 7 11 30.25 1025 5 8 0.09 2.29
2:21 am 02:21 Cloudy with Freezing Rain 32 0 31 -0.6 96 96 Calm 30.27 1025 4 6 0.05 1.27
2:53 am 02:53 Cloudy with Freezing Rain 32 0 31 -0.6 96 96 Calm 30.26 1025 3 5 0.14 3.56
3:05 am 03:05 Cloudy with Freezing Rain 32 0 31 -0.6 96 96 N 3 6 30.27 1025 3 4 0.04 1.02
3:16 am 03:16 Cloudy with Freezing Rain 32 0 31 -0.6 96 96 NNE 3 6 30.24 1024 3 5 0.07 1.78
3:41 am 03:41 Cloudy with Freezing Rain 32 0 32 0 100 100 NE 7 11 30.24 1024 3 5 0.12 3.05
3:53 am 03:53 Cloudy with Freezing Rain 32 0 32 0 100 100 NE 8 13 30.20 1023 3 5 0.15 3.81
3:59 am 03:59 Cloudy with Light Wintry Mix 32 0 32 0 100 100 NE 8 13 30.21 1023 3 5 0.01 0.25
4:09 am 04:09 Cloudy with Light Wintry Mix 32 0 32 0 100 100 NE 8 13 30.21 1023 4 6 0.03 0.76
4:38 am 04:38 Cloudy with Light Wintry Mix 33 0.6 32 0 96 96 ENE 7 11 30.21 1023 4 6 0.08 2.03
4:53 am 04:53 Cloudy with Light Rain 33 0.6 32 0 96 96 ENE 6 9 30.17 1022 6 10 0.10 2.54
5:53 am 05:53 Cloudy with Light Rain 33 0.6 33 0.6 100 100 E 3 6 30.17 1022 6 10 0.06 1.52
6:53 am 06:53 Cloudy with Light Rain 33 0.6 32 0 96 96 NE 5 7 30.14 1021 9 14 0.04 1.02
7:53 am 07:53 Cloudy with Light Rain 33 0.6 33 0.6 100 100 NE 3 6 30.13 1020 6 10 0.02 0.51
8:53 am 08:53 Cloudy with Light Rain 33 0.6 33 0.6 100 100 N 3 6 30.11 1020 4 6 0.03 0.76
9:53 am 09:53 Cloudy with Light Rain 33 0.6 33 0.6 100 100 Calm 30.10 1019 3 4 0.06 1.52
10:03 am 10:03 Cloudy with Light Rain 34 1.1 34 1.1 100 100 Calm 30.09 1019 3 5 0.01 0.25
10:11 am 10:11 Cloudy with Light Rain 34 1.1 34 1.1 100 100 Calm 30.09 1019 3 5 0.02 0.51
10:18 am 10:18 Cloudy with Light Rain 34 1.1 34 1.1 100 100 Calm 30.09 1019 3 4 0.02 0.51
10:53 am 10:53 Cloudy with Light Rain 34 1.1 34 1.1 100 100 Calm 30.08 1019 3 4 0.04 1.02
11:05 am 11:05 Cloudy with Light Rain 35 1.7 34 1.1 96 96 Calm 30.09 1019 3 5 0.00 0.03
11:53 am 11:53 Cloudy with Light Rain 35 1.7 35 1.7 100 100 S 5 7 30.07 1018 3 5 0.01 0.25
12:53 pm 12:53 Cloudy with Mist and Fog 36 2.2 35 1.7 97 97 S 5 7 30.05 1018 4 6 0.01 0.25
1:53 pm 13:53 Cloudy 37 2.8 36 2.2 96 96 WSW 7 11 30.01 1016 8 13 0.00 0.00
2:39 pm 14:39 Cloudy with Light Rain 37 2.8 35 1.7 93 93 WSW 6 9 30.00 1016 9 14 0.00 0.03
2:53 pm 14:53 Cloudy with Mist and Fog 37 2.8 35 1.7 93 93 WSW 9 15 29.99 1016 6 10 0.00 0.03
3:53 pm 15:53 Cloudy with Light Rain 36 2.2 34 1.1 93 93 W 10 17 29.99 1016 6 10 0.01 0.25
4:17 pm 16:17 Cloudy with Light Snow 34 1.1 33 0.6 97 97 SW 5 7 30.00 1016 3 4 0.01 0.25
4:53 pm 16:53 Cloudy with Light Snow 34 1.1 33 0.6 97 97 Calm 30.00 1016 2 3 0.04 1.02
5:00 pm 17:00 Cloudy with Light Snow 34 1.1 33 0.6 97 97 Calm 30.00 1016 3 4 0.00 0.03
5:49 pm 17:49 Cloudy with Mist and Fog 34 1 34 1 100 100 S 3 6 30.00 1016 2 3 0.01 0.25
5:53 pm 17:53 Cloudy with Mist and Fog 33 0.6 33 0.6 100 100 Calm 30.00 1016 2 3 0.01 0.25
6:02 pm 18:02 Cloudy with Mist and Fog 34 1.1 33 0.6 97 97 SSE 3 6 30.00 1016 2 3 0.01 0.25
6:22 pm 18:22 Cloudy with Mist and Fog 34 1.1 33 0.6 97 97 SW 5 7 30.00 1016 2 3 0.01 0.25
6:53 pm 18:53 Cloudy with Light Rain 35 1.7 33 0.6 93 93 WSW 8 13 30.01 1016 5 8 0.01 0.25
7:27 pm 19:27 Cloudy with Mist and Fog 34 1.1 33 0.6 97 97 WSW 9 15 30.00 1016 7 11 0.01 0.25
7:53 pm 19:53 Cloudy with Light Snow 34 1.1 32 0 92 92 WSW 9 15 30.02 1017 7 11 0.01 0.25
8:53 pm 20:53 Cloudy with Drizzle 34 1.1 31 -0.6 89 89 SW 10 17 30.03 1017 10 16 0.00 0.03
9:29 pm 21:29 Cloudy 34 1.1 31 -0.6 89 89 WSW 12 19 30.03 1017 10 16 0.01 0.25
9:53 pm 21:53 Cloudy 34 1.1 31 -0.6 89 89 WSW 12 19 30.04 1017 10 16 0.01 0.25
10:53 pm 22:53 Cloudy 33 0.6 30 -1.1 89 89 SW 12 19 30.04 1017 10 16 0.00 0.00
11:01 pm 23:01 Cloudy 33 0.6 30 -1.1 89 89 SW 9 15 30.03 1017 10 16 0.00 0.00
11:13 pm 23:13 Cloudy 33 0.6 30 -1.1 89 89 WSW 14 22 30.03 1017 10 16 0.00 0.00
11:23 pm 23:23 Cloudy 33 0.6 30 -1.1 89 89 SW 10 17 30.03 1017 10 16 0.00 0.00
11:32 pm 23:32 Cloudy 33 0.6 30 -1.1 89 89 WSW 16 26 30.03 1017 10 16 0.00 0.00
11:53 pm 23:53 Cloudy 32 0 30 -1.1 92 92 SW 9 15 30.04 1017 10 16 0.00 0.00

Powered by AerisWeather